Find Starlink 31210

NORAD ID: 59033 Int'l Des: 2024-038 Owner: SPXS Country: US Constellation: starlink operational
LEOCIRCULAR

当前视图

正在加载3D地球...

About Starlink 31210

Starlink 31210 (NORAD 59033) is a starlink constellation satellite (v2 mini) launched Feb 25, 2024 by SPXS of US. It operates in LEO, CIRCULAR orbit with a mass of 730.00 kg.

即将过境

Passes for default location (London). Set your location on the main map for personalized predictions.

高度历史

Loading altitude history...

两行轨道根数

1 59033U 24038L 26264.95580468 -.00002107 00000-0 -67091-4 0 9991
2 59033 43.0033 355.2421 0002007 275.3683 84.6940 15.27552035144870
Epoch: Sep 21, 2026 • Age: 19 hours

当前状态

高度 489.8 km
远地点 / 近地点 N/A
速度 7.62 km/s
星下点 -29.48°S, 48.63°E
发射日期 Feb 25, 2024
运行时间 2.5 years
类型 internet

技术详情

分类 Payload
质量 730.00 kg
干质量 700.00 kg
长度 0.30 m
跨度 29.00 m
形状 ? Box + pan
制造商 SPXS
平台类型 Starlink V2M
阶段状态 In Orbit
所有者/国家 SPXS/US

Most Searched